Location: Newark
(44.2886°N, 4.8431°E)
Time: 06:52:29
(UTC+00:00)

X-37B - Visible Passes

Search period start: 01 October 2020 00:00
Search period end: 11 October 2020 00:00
Orbit: 386 x 387 km, 45.0° (Epoch: 18 September)

Date Brightness Start Highest point End Pass type
(mag) Time Alt. Az. Time Alt. Az. Time Alt. Az.
01 Oct 2.8 18:33:04 10° S 18:34:08 13° SSE 18:34:08 13° SSE visible
02 Oct 2.5 19:09:26 10° SW 19:10:54 22° SSW 19:10:54 22° SSW visible
03 Oct 2.1 18:11:23 10° SSW 18:13:57 22° SSE 18:15:15 17° ESE visible
03 Oct 3.7 19:47:06 10° WSW 19:47:32 13° WSW 19:47:32 13° WSW visible
04 Oct 0.7 18:48:37 10° WSW 18:51:44 55° SSE 18:51:46 55° SSE visible
05 Oct 1.4 17:50:18 10° SW 17:53:15 35° SSE 17:55:54 12° E visible
05 Oct 2.6 19:26:33 10° W 19:28:11 27° W 19:28:11 27° W visible
06 Oct 0.5 18:27:59 10° WSW 18:31:09 79° SSE 18:32:15 37° E visible
07 Oct 1.4 19:06:02 10° W 19:08:32 50° WNW 19:08:32 50° WNW visible
08 Oct 0.6 18:07:26 10° W 18:10:36 83° N 18:12:31 22° E visible
08 Oct 3.7 19:44:07 10° W 19:44:47 15° W 19:44:47 15° W visible
09 Oct 0.5 18:45:31 10° W 18:48:42 77° N 18:48:46 77° NNE visible
10 Oct 0.6 17:46:54 10° W 17:50:05 75° N 17:52:44 14° E visible
10 Oct 3.0 19:23:35 10° W 19:25:01 24° W 19:25:01 24° W visible
